Probability
32 16 0 0 0 0 0 0 0 0 0 0 0 0 0 0 0 0 0 0 0 0 16 29 32 42 45 42 45 48 48 45 45 42 39 35 39 42 39 32 35 35 35 35 35 32 42 42 45
13 13 3 0 0 0 0 0 0 0 0 0 0 0 0 0 0 0 0 3 3 10 16 23 29 39 42 42 45 48 42 39 39 42 35 35 35 39 32 29 32 29 29 29 32 35 35 35 42
16 6 0 0 0 0 0 0 0 0 0 0 0 0 0 0 0 0 3 6 6 6 13 26 32 23 35 29 29 42 39 39 39 39 39 32 35 32 29 29 32 29 29 29 26 29 32 35 45
6 0 0 0 0 0 0 0 0 0 0 0 0 0 0 0 0 0 10 6 6 6 19 29 29 23 29 29 26 29 32 35 35 35 35 32 35 35 32 29 26 23 26 26 26 29 32 39 32
3 0 0 0 0 0 0 0 0 0 0 0 0 0 0 0 3 10 10 6 3 3 10 26 26 26 26 29 29 29 29 29 29 29 32 35 35 32 23 23 26 23 19 19 23 29 29 32 29
0 0 0 0 0 0 0 0 0 0 0 0 0 0 0 3 6 10 6 6 3 6 6 16 23 29 26 26 29 29 29 29 26 26 29 32 23 23 19 16 23 19 23 19 23 26 23 26 35
0 0 0 0 0 0 0 0 0 0 0 0 0 0 0 0 0 0 3 3 3 3 3 6 13 19 23 23 29 26 29 29 29 29 29 23 19 16 13 16 16 13 13 19 13 19 23 32 35
0 0 0 0 0 0 0 0 0 0 0 0 0 0 0 0 0 3 3 3 0 0 0 0 6 6 6 13 23 23 26 26 29 29 26 23 19 10 13 10 10 10 10 13 13 16 23 39 29
0 0 0 0 0 0 0 0 0 0 0 0 0 0 0 0 3 3 0 3 0 0 0 0 0 0 0 3 6 6 10 13 10 10 13 6 0 0 3 10 10 13 13 13 16 13 19 13 16
0 0 0 0 0 0 0 0 0 0 0 0 0 0 0 0 0 0 0 0 0 0 0 0 0 0 0 3 0 0 3 3 3 0 3 0 0 0 0 3 10 6 6 6 10 6 6 0 0
0 0 0 0 0 0 0 0 0 0 0 0 0 0 0 0 0 0 0 0 0 0 3 3 0 0 0 0 0 0 0 0 0 0 0 0 0 0 0 0 0 0 0 0 0 0 0 0 0
0 0 0 0 0 0 0 0 0 0 0 0 0 0 0 0 0 0 0 0 0 0 0 0 0 0 0 0 3 0 0 0 0 0 0 0 0 0 0 0 0 0 0 0 0 0 0 0 0
0 0 0 0 0 0 0 0 0 0 0 0 0 0 0 0 0 0 0 0 0 0 0 0 0 0 0 0 0 3 0 0 0 0 0 0 0 0 0 0 0 0 0 0 0 0 0 0 0
0 0 0 0 0 0 0 0 0 0 0 0 0 0 0 0 0 0 0 0 0 0 0 0 0 0 0 0 0 0 0 0 0 0 0 0 0 0 0 0 0 0 0 0 0 0 0 0 0
0 0 0 0 0 0 0 0 0 0 0 0 0 0 0 0 0 0 0 0 0 0 0 0 0 0 0 0 0 0 0 0 0 0 0 0 0 0 0 0 0 0 0 0 0 0 0 0 0
0 0 0 0 0 0 0 0 0 0 0 0 0 0 0 0 0 0 0 0 0 0 0 0 0 0 0 0 0 0 0 0 0 0 0 0 0 0 0 0 0 0 0 0 0 0 0 0 0
0 0 0 0 0 0 0 0 0 0 0 0 0 0 0 0 0 0 0 0 0 0 0 0 0 0 0 0 0 0 0 0 0 0 0 0 0 0 0 0 0 0 0 0 0 0 0 0 0
0 0 0 0 0 0 0 0 0 0 0 0 0 0 0 0 0 0 0 0 0 0 0 0 0 3 3 0 0 0 0 0 0 0 0 0 0 0 0 0 0 0 0 0 0 0 0 0 0
0 0 0 0 0 0 0 0 0 0 0 0 0 0 0 0 0 0 0 0 0 0 0 0 0 0 0 0 0 0 0 0 0 0 0 0 0 0 0 0 0 0 0 0 0 0 0 0 0
0 0 0 0 0 0 0 0 0 0 0 0 0 0 0 0 0 0 0 0 0 0 0 0 0 0 0 0 0 0 0 0 0 0 0 0 0 0 0 0 0 0 0 0 0 0 0 0 0
0 0 0 0 0 0 0 0 0 0 0 0 0 0 0 0 0 0 0 0 0 0 0 0 0 0 0 0 0 0 0 0 0 0 0 0 0 0 0 0 0 0 0 0 0 0 0 0 0
0 0 0 0 0 0 0 0 0 0 0 0 0 0 0 0 0 0 0 0 0 0 0 0 0 0 0 0 0 0 0 0 0 0 0 0 0 0 0 0 0 0 0 0 0 0 0 0 0
0 0 0 0 0 0 0 0 0 0 0 0 0 0 0 0 0 0 0 3 0 0 0 0 0 0 0 0 0 0 0 0 0 0 0 0 0 0 0 0 0 0 0 0 0 0 0 0 0
0 0 0 0 0 0 0 0 0 0 0 0 0 0 0 0 0 0 0 3 3 0 0 0 0 0 0 0 0 0 0 0 0 0 0 0 0 0 0 0 0 0 0 0 0 0 0 0 0
0 0 0 0 0 0 0 0 0 0 0 0 0 0 0 0 0 0 0 0 3 0 0 0 0 0 0 0 0 0 0 0 0 0 0 0 0 0 0 0 0 0 0 0 0 0 0 0 0
0 0 0 0 0 0 0 0 0 0 0 0 0 0 0 0 0 0 0 0 3 3 3 0 0 0 0 0 0 0 0 0 0 0 0 0 0 0 0 0 0 0 0 0 0 0 0 0 0
0 0 0 0 0 0 0 0 0 0 0 0 0 0 0 0 3 0 0 0 0 3 3 3 0 0 0 0 0 0 0 0 0 0 0 0 0 0 0 0 0 0 0 0 0 0 0 0 0
0 0 0 0 0 0 0 0 0 0 0 0 0 0 0 0 3 3 0 0 0 3 3 3 3 0 0 0 0 0 0 0 0 0 0 0 0 0 0 0 0 0 0 0 0 0 0 0 0
0 0 0 0 0 0 0 0 0 0 0 0 0 0 0 0 0 3 0 0 0 0 3 3 3 3 0 0 0 0 0 0 0 0 0 0 0 0 0 0 0 0 0 0 0 0 0 0 0
0 0 0 0 0 0 0 0 0 0 0 0 0 0 0 0 0 0 0 0 0 0 0 3 3 3 0 0 0 0 0 0 0 0 0 0 0 0 0 0 0 0 0 0 0 0 0 0 0
Height
5869 5870 5872 5873 5875 5875 5875 5876 5876 5877 5878 5878 5879 5879 5880 5881 5882 5885 5883 5881 5882 5882 5881 5881 5880 5881 5880 5880 5880 5879 5879 5878 5877 5877 5877 5876 5876 5876 5876 5876 5876 5876 5876 5876 5876 5876 5876 5875 5875
5869 5870 5872 5873 5874 5874 5875 5876 5876 5877 5878 5878 5879 5879 5880 5880 5881 5881 5881 5881 5881 5881 5881 5881 5881 5880 5880 5880 5879 5879 5879 5878 5878 5877 5877 5876 5876 5876 5876 5876 5876 5876 5876 5876 5875 5875 5875 5875 5874
5868 5870 5872 5873 5873 5874 5875 5875 5876 5877 5877 5878 5879 5879 5880 5880 5880 5880 5880 5881 5881 5881 5881 5881 5880 5880 5879 5879 5879 5879 5878 5878 5877 5877 5876 5876 5876 5876 5876 5875 5875 5875 5875 5875 5875 5874 5874 5874 5873
5868 5870 5872 5873 5872 5873 5874 5875 5875 5876 5877 5877 5878 5879 5879 5880 5880 5880 5880 5881 5881 5881 5881 5880 5880 5879 5879 5879 5879 5878 5878 5877 5877 5877 5876 5876 5876 5875 5875 5875 5875 5875 5874 5874 5874 5874 5873 5873 5873
5868 5870 5871 5871 5872 5873 5873 5874 5875 5876 5876 5876 5877 5878 5879 5879 5879 5880 5880 5880 5881 5881 5880 5880 5879 5879 5878 5878 5878 5878 5877 5877 5877 5876 5876 5875 5875 5875 5875 5874 5874 5874 5874 5874 5873 5873 5873 5872 5872
5868 5869 5870 5870 5871 5872 5873 5874 5874 5875 5875 5876 5877 5878 5878 5879 5879 5879 5880 5880 5880 5880 5880 5879 5879 5878 5878 5878 5877 5877 5877 5876 5876 5876 5875 5875 5874 5874 5874 5874 5874 5873 5873 5873 5873 5872 5872 5871 5871
5868 5868 5869 5870 5870 5871 5872 5873 5873 5874 5874 5875 5876 5877 5877 5878 5878 5879 5879 5879 5879 5879 5879 5878 5878 5878 5878 5877 5877 5876 5876 5876 5875 5875 5874 5874 5873 5873 5873 5873 5873 5873 5873 5872 5872 5872 5871 5871 5870
5866 5868 5868 5869 5869 5871 5871 5872 5872 5873 5873 5874 5875 5876 5876 5877 5877 5878 5878 5878 5878 5878 5878 5878 5878 5877 5877 5877 5876 5876 5875 5875 5874 5874 5873 5873 5873 5872 5872 5872 5872 5872 5872 5872 5871 5871 5870 5870 5870
5865 5867 5867 5868 5868 5869 5870 5870 5871 5872 5872 5873 5874 5875 5875 5876 5876 5877 5877 5877 5877 5877 5877 5877 5877 5876 5876 5876 5875 5875 5874 5874 5873 5873 5873 5872 5872 5872 5871 5871 5871 5871 5871 5871 5870 5870 5869 5869 5869
5864 5865 5866 5867 5867 5868 5869 5869 5870 5871 5871 5872 5873 5873 5874 5875 5875 5876 5876 5876 5876 5876 5876 5876 5876 5875 5875 5875 5875 5874 5874 5873 5873 5872 5872 5871 5871 5871 5870 5870 5870 5870 5870 5870 5869 5869 5869 5868 5868
5862 5863 5864 5865 5866 5866 5867 5868 5869 5869 5870 5871 5872 5872 5873 5873 5874 5875 5875 5875 5875 5875 5875 5875 5875 5874 5874 5874 5873 5873 5873 5872 5872 5871 5871 5870 5870 5870 5869 5869 5869 5869 5869 5869 5868 5868 5868 5867 5867
5860 5861 5862 5863 5864 5865 5866 5867 5867 5868 5869 5870 5870 5871 5872 5872 5873 5873 5874 5874 5874 5874 5874 5874 5873 5873 5873 5873 5872 5872 5872 5871 5871 5870 5870 5869 5869 5868 5868 5868 5867 5867 5867 5867 5867 5867 5866 5866 5866
5859 5860 5861 5862 5863 5863 5864 5865 5866 5867 5868 5868 5869 5870 5870 5871 5871 5871 5872 5872 5872 5872 5872 5872 5872 5872 5872 5871 5871 5871 5870 5870 5870 5869 5868 5868 5867 5867 5867 5866 5866 5866 5866 5866 5866 5865 5865 5864 5865
5858 5858 5859 5860 5861 5862 5863 5864 5865 5865 5866 5867 5867 5868 5869 5869 5870 5870 5870 5870 5871 5871 5871 5871 5870 5870 5870 5870 5870 5870 5869 5869 5868 5868 5867 5866 5866 5865 5865 5865 5865 5865 5865 5864 5864 5864 5863 5863 5863
5856 5858 5858 5859 5860 5861 5862 5863 5863 5864 5864 5865 5866 5866 5867 5868 5868 5869 5869 5869 5869 5869 5869 5869 5869 5869 5869 5869 5869 5868 5868 5868 5867 5866 5866 5865 5865 5864 5864 5864 5863 5863 5863 5863 5862 5862 5862 5862 5862
5855 5857 5858 5858 5859 5859 5862 5862 5862 5862 5863 5863 5864 5865 5865 5866 5866 5867 5867 5867 5867 5867 5867 5868 5868 5867 5868 5868 5868 5867 5867 5867 5866 5865 5865 5864 5864 5863 5863 5862 5862 5862 5862 5861 5861 5861 5861 5860 5860
5854 5855 5856 5857 5857 5858 5859 5860 5861 5860 5861 5862 5862 5863 5864 5864 5865 5865 5865 5865 5865 5865 5866 5866 5866 5866 5866 5866 5866 5866 5866 5865 5865 5864 5864 5863 5863 5862 5862 5861 5861 5860 5860 5860 5860 5860 5859 5859 5859
5853 5854 5854 5855 5856 5856 5857 5858 5859 5859 5859 5860 5861 5861 5862 5862 5863 5863 5863 5863 5863 5863 5864 5863 5864 5864 5864 5864 5864 5864 5864 5864 5864 5863 5863 5862 5861 5861 5861 5860 5860 5859 5859 5859 5859 5859 5858 5858 5858
5851 5852 5853 5854 5854 5854 5855 5856 5857 5857 5857 5858 5859 5859 5859 5860 5860 5860 5861 5861 5861 5861 5861 5862 5862 5862 5862 5862 5862 5862 5862 5862 5862 5862 5861 5861 5860 5860 5859 5859 5859 5859 5858 5858 5857 5857 5857 5857 5857
5849 5850 5851 5852 5852 5852 5853 5854 5855 5855 5856 5856 5857 5857 5857 5858 5858 5858 5858 5859 5859 5859 5859 5860 5860 5860 5860 5860 5860 5860 5860 5860 5860 5860 5860 5859 5859 5858 5858 5858 5858 5857 5857 5857 5856 5856 5855 5855 5855
5848 5849 5849 5850 5850 5850 5851 5852 5853 5853 5853 5854 5855 5855 5855 5855 5856 5856 5856 5856 5856 5856 5857 5857 5857 5857 5857 5857 5857 5858 5858 5858 5858 5858 5858 5857 5857 5857 5856 5856 5856 5856 5856 5855 5855 5855 5854 5854 5854
5846 5846 5847 5847 5847 5848 5849 5849 5851 5851 5851 5852 5853 5853 5853 5853 5853 5853 5853 5854 5854 5854 5854 5855 5855 5855 5855 5855 5855 5855 5855 5855 5856 5856 5856 5856 5855 5855 5855 5854 5854 5854 5854 5854 5853 5853 5853 5853 5853
5843 5844 5844 5844 5845 5846 5846 5847 5849 5849 5849 5850 5850 5851 5851 5851 5851 5851 5851 5851 5851 5852 5852 5852 5852 5852 5853 5853 5853 5853 5853 5853 5853 5853 5853 5853 5853 5853 5853 5853 5852 5852 5852 5852 5852 5851 5851 5851 5851
5840 5841 5841 5842 5842 5843 5844 5844 5846 5847 5847 5847 5848 5848 5848 5848 5848 5848 5848 5849 5849 5849 5849 5849 5850 5850 5850 5850 5850 5850 5850 5850 5851 5851 5851 5851 5851 5851 5851 5851 5850 5850 5850 5850 5850 5850 5850 5849 5849
5838 5839 5839 5839 5839 5841 5841 5841 5843 5844 5844 5844 5844 5844 5845 5845 5845 5845 5846 5846 5846 5847 5847 5847 5847 5847 5847 5847 5847 5847 5848 5848 5848 5848 5848 5849 5849 5849 5848 5848 5848 5848 5848 5848 5848 5848 5848 5847 5848
5835 5836 5837 5837 5837 5837 5838 5838 5840 5840 5840 5841 5841 5841 5841 5842 5842 5842 5843 5844 5844 5844 5844 5844 5844 5844 5844 5844 5844 5845 5845 5845 5845 5845 5846 5846 5846 5846 5846 5846 5846 5846 5846 5846 5846 5846 5845 5845 5845
5832 5832 5833 5833 5833 5833 5834 5836 5837 5837 5837 5837 5838 5838 5838 5838 5839 5839 5840 5840 5841 5841 5841 5841 5841 5841 5841 5841 5841 5841 5842 5842 5842 5842 5843 5843 5843 5844 5843 5843 5843 5843 5843 5843 5843 5843 5843 5843 5842
5829 5829 5829 5829 5829 5830 5831 5832 5834 5834 5834 5834 5834 5835 5835 5835 5835 5835 5836 5837 5837 5837 5838 5838 5838 5838 5838 5838 5838 5838 5839 5839 5839 5840 5840 5840 5840 5841 5841 5841 5841 5841 5840 5840 5840 5840 5840 5840 5840
5825 5826 5825 5826 5826 5826 5827 5831 5830 5830 5830 5830 5830 5831 5831 5831 5832 5832 5832 5833 5833 5834 5834 5834 5835 5834 5835 5835 5835 5836 5836 5836 5836 5837 5837 5837 5838 5838 5838 5838 5838 5838 5838 5837 5837 5837 5837 5837 5837
5820 5821 5821 5822 5822 5822 5823 5827 5825 5826 5826 5826 5827 5827 5827 5828 5828 5828 5829 5829 5830 5830 5831 5831 5831 5831 5831 5831 5832 5832 5832 5833 5833 5833 5834 5834 5834 5834 5835 5835 5835 5834 5834 5834 5834 5834 5833 5833 5833
Wind_Speed
6 6 6 6 6 5 5 5 4 3 3 3 3 2 1 1 1 1 1 0 1 2 2 3 3 4 4 4 4 4 5 5 5 4 4 4 4 4 3 3 4 4 4 4 5 5 4 5 5
6 6 6 6 6 6 5 5 5 4 4 4 3 2 2 1 1 1 1 1 1 1 2 3 4 4 3 3 3 4 4 4 5 5 4 4 4 4 3 4 4 4 3 4 4 4 4 4 5
5 6 5 5 6 6 5 5 5 5 4 5 4 2 2 1 1 1 1 1 1 2 3 3 4 4 3 3 2 3 4 4 5 5 5 5 5 3 3 3 3 3 3 3 4 4 4 4 4
5 5 5 5 5 5 5 5 5 5 5 5 4 4 2 2 2 2 2 2 2 3 3 4 4 4 4 3 3 3 4 4 4 5 6 5 4 4 3 4 4 4 4 4 4 5 5 5 4
6 6 6 5 5 5 5 5 5 5 5 5 4 4 3 3 3 3 2 2 2 2 3 4 4 4 4 3 3 4 5 4 4 5 6 5 5 4 4 5 4 4 4 4 5 5 5 5 5
6 6 7 6 6 5 5 5 6 5 5 4 4 4 4 3 3 3 3 2 3 3 3 3 3 4 4 3 4 4 5 5 5 6 6 5 5 5 5 5 5 5 5 5 5 6 5 5 5
7 7 7 7 6 5 5 5 5 6 5 5 5 5 4 4 4 4 4 4 4 4 3 3 3 3 3 4 4 5 5 5 5 6 6 6 5 5 6 5 6 6 5 5 6 6 5 5 4
8 7 7 7 7 6 6 5 5 5 5 4 5 5 5 4 5 5 5 5 5 4 4 3 3 3 3 4 4 5 5 5 5 6 5 6 5 5 5 6 6 6 6 5 5 5 4 4 4
8 8 8 8 8 7 6 6 6 5 5 4 4 5 5 5 5 5 4 4 4 4 4 3 3 3 4 4 5 5 5 5 6 6 6 5 5 5 6 6 6 5 5 5 5 5 4 5 5
9 9 8 8 8 7 7 6 7 7 6 5 5 5 5 5 5 5 4 4 3 4 3 3 3 4 4 5 5 5 5 5 6 6 6 6 6 6 6 6 6 5 5 5 5 5 5 5 5
9 9 8 8 8 8 7 7 7 7 6 6 6 5 6 6 6 6 6 5 4 4 4 4 4 4 5 5 5 6 6 6 6 6 6 6 6 6 6 6 6 5 5 5 5 5 5 6 5
8 9 9 8 9 9 9 8 7 7 7 7 7 6 6 7 8 7 7 6 5 5 4 5 5 5 5 5 5 6 6 6 6 6 7 7 6 6 7 6 6 6 6 6 6 6 6 7 6
8 8 9 9 9 9 9 9 8 7 7 8 8 7 7 7 7 7 7 7 6 6 6 5 6 5 6 6 6 6 6 7 7 7 7 7 7 7 7 7 6 7 7 7 7 8 7 7 6
8 9 9 9 8 8 9 9 9 8 8 8 8 8 8 8 7 7 7 8 7 7 6 6 6 6 6 6 6 6 6 6 7 6 6 7 7 7 6 7 7 6 6 7 7 7 7 7 6
8 9 8 8 8 8 8 9 9 9 8 8 8 9 9 9 8 8 8 8 8 7 7 7 7 6 6 6 6 6 6 6 6 6 6 7 7 7 7 7 6 7 7 7 7 7 7 7 6
8 8 8 8 8 7 7 7 8 9 8 8 8 9 9 9 9 9 9 9 8 8 8 8 8 7 7 7 6 6 6 7 7 6 6 6 6 7 6 6 6 7 7 6 6 6 6 6 5
8 8 8 8 8 8 8 8 8 9 8 8 8 9 9 9 9 9 9 9 9 9 8 8 8 8 8 8 7 7 7 7 7 7 7 6 6 5 5 6 6 6 5 5 6 6 5 5 5
8 8 8 8 9 10 10 9 9 9 9 9 9 9 9 9 9 9 10 10 10 10 9 9 9 9 9 9 8 8 8 8 7 7 7 6 6 6 6 6 5 5 5 5 6 6 5 4 4
9 8 8 9 9 10 10 10 10 10 10 9 9 10 10 10 10 10 10 10 11 10 10 9 10 10 10 10 10 10 9 9 8 7 7 6 6 6 6 6 6 6 5 5 5 5 5 5 4
10 9 9 10 10 11 11 11 11 11 11 11 10 10 10 10 10 10 10 10 10 10 10 10 11 11 11 10 10 10 10 10 9 8 8 7 7 7 7 6 6 6 6 5 5 5 5 5 5
10 10 10 11 11 11 11 12 11 12 12 11 11 11 11 11 11 11 10 11 11 11 11 11 11 11 11 10 10 10 10 10 10 8 8 8 8 7 7 7 7 6 6 6 5 5 5 5 5
11 11 11 12 12 12 11 12 11 11 12 12 12 12 11 12 12 11 11 11 11 11 11 11 11 12 12 11 11 11 11 10 10 9 9 8 8 8 8 8 7 7 6 6 5 5 5 5 5
12 13 13 13 13 12 11 12 11 11 12 12 12 11 11 12 12 11 11 11 11 11 12 12 12 12 12 12 12 12 12 11 11 10 10 9 9 9 9 8 8 8 7 6 6 6 6 5 5
14 14 14 14 14 13 12 13 12 11 12 12 12 12 11 12 12 11 11 11 11 11 12 12 12 12 12 12 12 12 12 11 11 11 11 10 10 10 10 9 9 8 8 7 7 7 6 7 7
14 14 15 14 14 14 13 14 13 12 13 13 13 12 12 12 12 12 12 11 11 11 11 11 12 12 12 12 12 11 11 11 11 12 11 11 11 10 10 10 9 8 8 8 8 8 8 8 8
14 15 15 15 15 14 14 14 13 13 13 13 13 13 14 14 13 13 13 12 12 12 11 11 12 12 11 11 11 11 11 12 12 12 12 11 11 11 10 9 9 9 9 9 9 9 9 9 9
15 15 15 15 15 15 15 14 13 13 13 13 14 14 14 14 14 14 13 13 13 13 13 13 13 13 11 11 11 11 12 12 11 11 12 12 11 11 10 10 11 10 10 9 9 9 10 10 10
16 16 16 16 16 16 15 14 13 14 14 14 14 14 15 15 15 14 14 14 13 14 14 13 13 13 13 12 12 12 12 12 11 11 12 12 12 11 11 11 11 11 11 11 10 10 11 11 11
17 17 17 17 18 18 17 15 14 14 15 15 15 15 15 14 15 15 15 15 15 15 15 14 14 13 13 13 12 12 12 12 12 12 12 12 12 11 11 11 12 12 12 12 11 11 11 12 12
17 18 19 19 19 19 19 17 16 16 16 15 15 15 15 15 15 16 16 16 15 15 15 15 15 14 14 14 13 13 12 13 13 12 12 13 13 13 13 13 13 13 13 13 13 12 12 12 12
Wind_Direction
214 213 213 216 219 225 231 223 226 222 224 228 213 206 200 249 123 136 184 227 326 333 328 324 329 330 334 343 354 4 10 14 20 15 8 5 359 359 4 356 345 339 334 330 325 318 316 315 306
212 215 218 221 226 235 237 238 238 237 231 227 217 210 213 226 217 269 262 258 294 328 328 320 315 312 315 326 346 355 2 10 14 6 356 356 358 352 356 348 341 340 338 334 327 326 323 316 317
208 219 224 223 230 238 239 243 241 239 236 230 226 223 218 228 253 266 262 272 285 316 329 321 307 304 309 311 338 347 351 355 355 351 352 347 348 341 335 339 335 333 329 326 329 328 321 317 315
220 223 228 229 230 236 241 246 242 238 239 234 236 238 235 233 242 254 259 262 283 302 312 315 310 299 301 299 304 324 332 335 336 336 337 333 329 328 321 325 325 319 319 319 324 324 317 311 304
221 224 229 231 236 236 238 240 232 234 241 228 230 238 239 229 230 242 254 243 274 292 309 316 308 297 293 294 303 308 316 321 320 322 323 323 321 314 313 320 317 312 318 323 321 323 316 307 301
230 232 231 234 241 238 240 246 237 239 248 242 231 230 230 231 235 241 241 260 268 287 302 307 300 297 293 298 307 313 319 319 319 316 312 308 309 304 301 307 307 311 313 313 316 320 319 306 300
231 231 232 238 241 242 242 243 244 242 243 236 233 229 226 223 235 247 254 265 268 278 287 289 290 293 294 298 307 317 318 319 319 315 309 303 300 300 300 297 301 302 303 304 309 314 314 310 307
236 239 238 236 237 245 248 238 240 232 236 238 229 228 228 227 230 246 255 266 270 273 274 280 287 287 291 292 300 310 313 313 314 313 306 299 296 294 296 294 293 295 292 297 301 305 308 305 306
239 241 241 241 240 245 248 240 232 230 237 239 236 236 238 233 235 245 253 260 266 267 267 276 285 280 281 284 289 299 306 312 313 311 307 299 292 290 292 294 292 293 292 294 297 296 297 294 295
242 243 242 245 245 246 245 235 230 230 242 249 245 240 238 239 236 243 249 255 265 264 263 271 276 270 275 283 287 293 300 306 309 308 304 298 290 287 286 291 291 287 285 289 290 291 293 293 291
245 243 243 248 250 249 244 235 230 232 241 245 240 234 236 241 238 245 246 245 256 267 263 261 267 272 273 278 285 291 296 300 303 302 301 298 289 284 284 286 281 280 279 281 281 287 288 287 288
246 243 243 246 250 250 248 246 238 243 248 244 239 233 237 245 243 243 244 244 252 260 259 262 267 272 272 272 278 285 292 297 298 297 293 296 293 283 278 274 274 277 279 278 280 286 285 285 280
252 249 244 245 249 251 251 251 248 250 253 251 242 238 241 243 241 241 244 247 253 254 252 258 266 270 274 274 274 279 286 291 294 296 295 296 293 281 274 269 268 275 281 280 282 288 284 280 279
247 249 246 244 247 248 249 250 248 245 250 248 242 239 241 242 243 245 249 254 255 256 257 261 263 267 271 271 274 281 286 290 297 299 294 290 285 280 274 271 270 275 279 275 278 282 280 281 280
243 247 252 250 247 246 247 247 248 244 244 243 240 242 243 243 246 249 252 255 254 255 255 259 262 266 268 268 271 279 285 289 299 301 292 288 284 275 270 276 278 276 278 279 276 282 284 281 276
245 245 250 250 247 245 247 244 241 242 240 240 240 242 244 248 251 251 255 255 258 257 257 259 262 264 264 263 266 272 280 284 293 298 292 287 288 286 278 281 283 282 281 278 282 281 283 282 278
249 248 248 249 246 247 247 243 239 243 245 243 242 242 245 250 252 251 253 255 260 261 260 256 261 259 258 260 262 270 275 278 286 292 293 292 292 289 281 288 288 288 287 282 286 286 283 284 280
246 248 247 249 250 251 249 245 244 245 245 244 247 247 248 251 254 254 253 256 257 259 258 259 259 254 256 259 260 264 269 274 278 286 288 291 292 287 284 287 289 290 287 286 283 286 282 280 280
248 250 251 255 257 255 252 247 245 244 245 246 249 251 251 252 254 254 255 255 254 257 258 259 257 256 256 259 259 262 269 276 280 281 282 289 291 285 280 284 287 286 285 288 283 280 279 274 278
250 251 253 255 258 258 255 250 247 248 250 252 252 254 256 254 254 256 256 255 253 255 254 255 253 258 262 264 263 262 267 274 276 274 275 279 284 279 276 280 284 287 286 287 285 281 279 270 273
251 253 252 254 256 259 259 253 249 250 253 254 256 257 258 256 255 254 256 256 255 256 254 256 256 259 263 264 264 264 267 270 268 267 273 277 277 273 274 274 278 282 283 284 283 277 277 272 269
255 253 255 255 256 257 258 255 249 252 255 258 259 261 262 260 257 254 257 260 260 257 256 257 259 258 260 263 265 265 265 264 264 265 270 276 275 273 273 273 276 276 275 277 280 273 273 272 270
257 256 258 259 259 259 259 262 255 255 259 262 262 262 262 260 257 256 258 259 258 256 255 257 259 258 260 262 266 266 263 261 263 264 266 270 269 271 273 274 275 273 271 273 276 270 263 268 272
259 258 261 262 262 262 263 263 259 255 260 261 261 260 259 258 256 255 257 259 260 259 258 256 259 261 262 263 266 267 263 261 262 263 265 266 267 270 271 273 273 269 271 273 273 268 264 267 271
259 260 264 267 266 266 264 263 263 258 258 259 260 260 259 259 256 254 255 257 259 260 261 258 261 263 265 266 265 263 262 260 262 263 264 264 266 270 271 269 267 268 272 274 271 267 265 267 271
261 263 264 269 271 268 265 263 263 262 262 259 258 260 261 260 259 256 254 254 256 258 261 263 262 263 264 265 262 261 261 261 262 263 263 265 267 268 266 264 264 268 270 270 269 267 268 270 270
260 263 266 269 270 268 265 267 264 265 263 262 261 261 262 260 259 256 254 255 256 258 262 266 266 262 262 264 263 263 259 260 262 261 261 264 266 267 265 265 268 269 268 268 270 269 270 272 272
261 263 264 267 269 269 267 268 269 265 263 263 265 263 262 259 256 252 254 257 259 259 261 263 266 265 263 264 264 263 259 258 260 260 260 261 261 261 265 267 269 267 268 269 268 267 268 271 273
262 262 262 265 269 272 272 270 270 268 263 263 262 261 258 255 252 252 255 258 260 259 260 261 263 267 267 266 266 263 261 257 257 260 262 262 260 261 265 268 269 271 269 268 268 267 269 271 273
262 262 264 266 269 271 271 271 271 269 265 263 261 257 253 251 252 253 255 258 259 259 258 261 262 265 266 267 267 265 264 259 258 261 262 263 264 265 265 267 271 272 271 270 268 268 269 270 271